| time (UTC) | temp F | wind direction | speed MPH | gust MPH | rain 1hr in | rain 24hr in | rain mn in | humidity % | barometer mb |
| 20260503234734 | 72 | 180 | 4.0 | 6.0 | 0.00 | 0.00 | 0.00 | 41 | 1019.5 |
| 20260503233646 | 73 | 180 | 4.0 | 7.0 | 0.00 | 0.00 | 0.00 | 41 | 1019.6 |
| 20260503232601 | 73 | 180 | 3.0 | 4.0 | 0.00 | 0.00 | 0.00 | 39 | 1019.6 |
| 20260503231522 | 73 | 135 | 3.0 | 5.0 | 0.00 | 0.00 | 0.00 | 39 | 1019.8 |
| 20260503230432 | 73 | 113 | 4.0 | 6.0 | 0.00 | 0.00 | 0.00 | 38 | 1019.8 |
| 20260503225345 | 73 | 113 | 4.0 | 7.0 | 0.00 | 0.00 | 0.00 | 38 | 1019.7 |
| 20260503224739 | 73 | 135 | 5.0 | 11.0 | 0.00 | 0.00 | 0.00 | 36 | 1019.7 |
| 20260503223216 | 74 | 158 | 4.0 | 9.0 | 0.00 | 0.00 | 0.00 | 36 | 1019.8 |
| 20260503222129 | 74 | 45 | 2.0 | 3.0 | 0.00 | 0.00 | 0.00 | 34 | 1020.1 |
| 20260503221522 | 74 | 293 | 5.0 | 8.0 | 0.00 | 0.00 | 0.00 | 33 | 1020.1 |
| 20260503215955 | 74 | 23 | 3.0 | 7.0 | 0.00 | 0.00 | 0.00 | 34 | 1020.0 |
| 20260503214911 | 74 | 90 | 3.0 | 9.0 | 0.00 | 0.00 | 0.00 | 35 | 1020.0 |
| 20260503213825 | 74 | 270 | 4.0 | 6.0 | 0.00 | 0.00 | 0.00 | 35 | 1020.2 |
| 20260503212738 | 74 | 315 | 4.0 | 9.0 | 0.00 | 0.00 | 0.00 | 35 | 1020.2 |
| 20260503212128 | 74 | 248 | 4.0 | 5.0 | 0.00 | 0.00 | 0.00 | 35 | 1020.6 |
| 20260503210612 | 75 | 68 | 4.0 | 6.0 | 0.00 | 0.00 | 0.00 | 34 | 1020.6 |
| 20260503205520 | 75 | 23 | 5.0 | 10.0 | 0.00 | 0.00 | 0.00 | 35 | 1020.7 |
| 20260503204434 | 76 | 180 | 4.0 | 7.0 | 0.00 | 0.00 | 0.00 | 34 | 1020.7 |
| 20260503203346 | 75 | 68 | 5.0 | 9.0 | 0.00 | 0.00 | 0.00 | 34 | 1021.1 |
| 20260503202736 | 75 | 23 | 3.0 | 8.0 | 0.00 | 0.00 | 0.00 | 35 | 1021.1 |
| 20260503201220 | 75 | 23 | 6.0 | 8.0 | 0.00 | 0.00 | 0.00 | 34 | 1021.2 |
| 20260503200610 | 75 | 0 | 7.0 | 13.0 | 0.00 | 0.00 | 0.00 | 34 | 1022.0 |
| 20260503195045 | 75 | 315 | 5.0 | 7.0 | 0.00 | 0.00 | 0.00 | 35 | 1022.0 |
| 20260503193959 | 74 | 68 | 5.0 | 9.0 | 0.00 | 0.00 | 0.00 | 35 | 1022.2 |
| 20260503192917 | 74 | 45 | 4.0 | 9.0 | 0.00 | 0.00 | 0.00 | 36 | 1022.2 |
| 20260503191828 | 74 | 315 | 5.0 | 9.0 | 0.00 | 0.00 | 0.00 | 35 | 1022.3 |
| 20260503190742 | 74 | 113 | 5.0 | 9.0 | 0.00 | 0.00 | 0.00 | 36 | 1022.3 |
| 20260503185701 | 74 | 45 | 6.0 | 6.0 | 0.00 | 0.00 | 0.00 | 34 | 1022.2 |
| 20260503184610 | 74 | 45 | 6.0 | 10.0 | 0.00 | 0.00 | 0.00 | 37 | 1022.2 |
| 20260503183523 | 74 | 45 | 5.0 | 8.0 | 0.00 | 0.00 | 0.00 | 36 | 1022.9 |
| 20260503182440 | 74 | 45 | 6.0 | 14.0 | 0.00 | 0.00 | 0.00 | 38 | 1022.9 |
| 20260503181348 | 73 | 113 | 7.0 | 8.0 | 0.00 | 0.00 | 0.00 | 36 | 1022.8 |
| 20260503180302 | 74 | 68 | 7.0 | 10.0 | 0.00 | 0.00 | 0.00 | 37 | 1022.8 |
| 20260503175224 | 73 | 23 | 7.0 | 13.0 | 0.00 | 0.00 | 0.00 | 39 | 1023.2 |
| 20260503174132 | 73 | 293 | 5.0 | 7.0 | 0.00 | 0.00 | 0.00 | 40 | 1023.4 |
| 20260503173048 | 73 | 23 | 6.0 | 13.0 | 0.00 | 0.00 | 0.00 | 39 | 1023.4 |
| 20260503171959 | 73 | 23 | 7.0 | 8.0 | 0.00 | 0.00 | 0.00 | 38 | 1023.7 |
| 20260503170913 | 73 | 23 | 6.0 | 12.0 | 0.00 | 0.00 | 0.00 | 37 | 1023.7 |
| 20260503131225 | 63 | 338 | 4.0 | 5.0 | 0.00 | 0.00 | 0.00 | 72 | 1023.1 |
| 20260503130138 | 62 | 338 | 3.0 | 4.0 | 0.00 | 0.00 | 0.00 | 73 | 1022.3 |
| 20260503110750 | 55 | 315 | 0.0 | 0.0 | 0.00 | 0.00 | 0.00 | 73 | 1021.6 |
| 20260503090447 | 56 | 338 | 0.0 | 0.0 | 0.00 | 0.00 | 0.00 | 71 | 1021.5 |
| 20260503081102 | 56 | 338 | 0.0 | 0.0 | 0.00 | 0.00 | 0.00 | 70 | 1021.4 |
| 20260503071706 | 56 | 338 | 0.0 | 0.0 | 0.00 | 0.00 | 0.00 | 69 | 1020.9 |
| 20260503070625 | 57 | 315 | 0.0 | 0.0 | 0.00 | 0.00 | 0.00 | 68 | 1020.9 |
| 20260503060144 | 60 | 270 | 0.0 | 0.0 | 0.00 | 0.00 | 0.00 | 64 | 1020.6 |
| 20260503055055 | 60 | 0 | 0.0 | 0.0 | 0.00 | 0.00 | 0.00 | 64 | 1020.7 |
| 20260503054009 | 61 | 338 | 0.0 | 0.0 | 0.00 | 0.00 | 0.00 | 62 | 1020.5 |
| 20260503052923 | 61 | 270 | 0.0 | 0.0 | 0.00 | 0.00 | 0.00 | 61 | 1020.5 |
| 20260503051837 | 61 | 90 | 0.0 | 0.0 | 0.00 | 0.00 | 0.00 | 60 | 1020.2 |
| 20260503050753 | 62 | 338 | 1.0 | 2.0 | 0.00 | 0.00 | 0.00 | 58 | 1020.2 |
| 20260503045711 | 63 | 338 | 2.0 | 3.0 | 0.00 | 0.00 | 0.00 | 58 | 1020.4 |
| 20260503044619 | 64 | 23 | 4.0 | 5.0 | 0.00 | 0.00 | 0.00 | 57 | 1020.4 |
| 20260503043533 | 64 | 315 | 6.0 | 9.0 | 0.00 | 0.00 | 0.00 | 57 | 1019.7 |
| 20260503042447 | 64 | 338 | 7.0 | 11.0 | 0.00 | 0.00 | 0.00 | 57 | 1019.7 |
| 20260503041402 | 64 | 203 | 7.0 | 10.0 | 0.00 | 0.00 | 0.00 | 57 | 1019.8 |
| 20260503041105 | 64 | 338 | 4.0 | 6.0 | 0.00 | 0.00 | 0.00 | 56 | 1019.8 |
| 20260503040314 | 64 | 315 | 6.0 | 9.0 | 0.00 | 0.00 | 0.00 | 56 | 1019.8 |
| 20260503034141 | 65 | 0 | 4.0 | 6.0 | 0.00 | 0.00 | 0.00 | 56 | 1019.8 |
| 20260503033057 | 65 | 315 | 3.0 | 5.0 | 0.00 | 0.00 | 0.00 | 56 | 1019.8 |
| 20260503032011 | 65 | 338 | 2.0 | 4.0 | 0.00 | 0.00 | 0.00 | 56 | 1019.6 |
| 20260503030925 | 64 | 293 | 1.0 | 3.0 | 0.00 | 0.00 | 0.00 | 56 | 1019.6 |
| 20260503025841 | 65 | 338 | 1.0 | 2.0 | 0.00 | 0.00 | 0.00 | 55 | 1019.1 |
| 20260503024759 | 65 | 315 | 4.0 | 5.0 | 0.00 | 0.00 | 0.00 | 54 | 1019.1 |
| 20260503023711 | 65 | 315 | 5.0 | 8.0 | 0.00 | 0.00 | 0.00 | 53 | 1018.8 |
| 20260503022625 | 66 | 338 | 4.0 | 6.0 | 0.00 | 0.00 | 0.00 | 53 | 1018.8 |
| 20260503021539 | 66 | 315 | 5.0 | 7.0 | 0.00 | 0.00 | 0.00 | 52 | 1018.4 |
| 20260503020452 | 66 | 293 | 7.0 | 9.0 | 0.00 | 0.00 | 0.00 | 52 | 1018.4 |
| 20260503015852 | 66 | 315 | 8.0 | 11.0 | 0.00 | 0.00 | 0.00 | 52 | 1018.4 |
| 20260503014331 | 66 | 315 | 7.0 | 9.0 | 0.00 | 0.00 | 0.00 | 51 | 1018.4 |
| 20260503013249 | 67 | 315 | 5.0 | 8.0 | 0.00 | 0.00 | 0.00 | 51 | 1018.4 |
| 20260503012151 | 67 | 338 | 5.0 | 7.0 | 0.00 | 0.00 | 0.00 | 50 | 1018.4 |
| 20260503011105 | 67 | 338 | 5.0 | 8.0 | 0.00 | 0.00 | 0.00 | 50 | 1018.4 |
| 20260503010327 | 68 | 293 | 6.0 | 8.0 | 0.00 | 0.00 | 0.00 | 48 | 1017.6 |
| 20260503010027 | 68 | 315 | 5.0 | 8.0 | 0.00 | 0.00 | 0.00 | 49 | 1017.6 |
| 20260503004323 | 69 | 315 | 6.0 | 10.0 | 0.00 | 0.00 | 0.00 | 48 | 1017.7 |
| 20260503002759 | 69 | 315 | 6.0 | 9.0 | 0.00 | 0.00 | 0.00 | 47 | 1017.7 |
| 20260503002201 | 69 | 338 | 7.0 | 11.0 | 0.00 | 0.00 | 0.00 | 46 | 1017.2 |
| 20260503001119 | 70 | 338 | 10.0 | 13.0 | 0.00 | 0.00 | 0.00 | 45 | 1017.2 |
| 20260502235544 | 70 | 315 | 10.0 | 13.0 | 0.00 | 0.00 | 0.00 | 45 | 1017.1 |